sat.trackr.live / text

‹ back to catalog

STARLINK-34186

NORAD 64145 · 2025-111Y

PAYLOAD ACTIVE UNKNOWN

§ Identity

Operator
Country
US
Launch date
2025-05-24
Launch site
AFETR
Launch vehicle
Mass (kg)
RCS (m²)

Purposes: comms

External: N2YO · Heavens-Above · Gunter

§ Orbital elements

Epoch: 2026-09-19T18:26:05.075520Z

Period
94.27 min
Inclination
43.0041°
Eccentricity
0.0000385
Mean motion
15.27591159 rev/d
Perigee alt
482.8 km
Apogee alt
483.3 km
Semi-major
6,861.2 km
B*
5.1803e-4
RAAN
61.9464°
Arg perigee
273.6318°
Mean anomaly
86.4490°
Rev number
7,514

§ Raw data

STARLINK-341861 64145U 25111Y   26262.76811430  .00014025  00000+0  51803-3 0  99992 64145  43.0041  61.9464 0000385 273.6318  86.4490 15.27591159 75143

JSON: /api/v1/satellites/64145 · /tle

For live sub-satellite position, see the globe view (requires WebGL).

§ Visibility from observer

Set your observer location to see the next 7 days of passes ≥ 10°. The values pass through the URL so the page stays shareable.

No JS? Fill the form by hand. The geolocation button needs JavaScript.